Regional Weather Roundup
Issued by NWS

Home | Current Version | Previous Version | Text Only | Print | Product List | Glossary On
Versions: 1 2 3 4 5 6 7 8 9 10 11 12 13 14 15 16 17 18 19 20 21 22 23 24 25 26 27
000
ASPQ40 PGUM 201912
RWRPQ
WEATHER ROUNDUP FOR THE MARIANAS AND MICRONESIA
NATIONAL WEATHER SERVICE TIYAN GU
500 AM GSST MON APR 21 2014

GUZ001>004-202000-
MARIANA ISLANDS-

CITY           SKY/WX    TMP DP  RH WIND       PRES   REMARKS
GUAM AIRPORT   PTCLDY    81  79  94 SE9       29.85R
ANDERSEN AFB   LGT RAIN  79  77  94 SE12      29.85S
ROTA AIRPORT   NOT AVBL
TINIAN AP      NOT AVBL
SAIPAN AP      PTCLDY    81  75  83 E15       29.86R

$$

PMZ161-202000-
REPUBLIC OF PALAU-

CITY           SKY/WX    TMP DP  RH WIND       PRES   REMARKS
KOROR AP       MOCLDY    77  75  94 CALM      29.76R
KOROR WSO      MOCLDY    79  75  89 CALM      29.76S

$$

PMZ171>174-202000-
FEDERATED STATES OF MICRONESIA-

CITY           SKY/WX    TMP DP  RH WIND       PRES   REMARKS
YAP AIRPORT    MOCLDY    79  77  94 VRB5      29.77R
CHUUK AP       PTCLDY    84  75  74 NE9       29.82R HX  92
POHNPEI AP     NOT AVBL
POHNPEI WSO    CLOUDY    82  75  78 N6        29.86R
KOSRAE AP      NOT AVBL

$$

PMZ181-202000-
REPUBLIC OF THE MARSHALL ISLANDS-

CITY           SKY/WX    TMP DP  RH WIND       PRES   REMARKS
KWAJALEIN AP   MOCLDY    81  73  78 NE15      29.86R
MAJURO AP      NOT AVBL
MAJURO WSO     LGT RAIN N/A N/A N/A VRB2      29.84R

$$




USA.gov is the U.S. government's official web portal to all federal, state and local government web resources and services.